Weather History for Mullan Pass, ID

Change the Weather History Date:

Saturday, December 29, 2012

  Actual Average (K3TH) Record (K3TH)
Temperature  
Mean Temperature 16 °F -  
Max Temperature 18 °F 31 °F 44 °F (1997)
Min Temperature 12 °F 25 °F 25 °F (1999)
Degree Days  
Heating Degree Days 49    
Moisture  
Dew Point 14 °F    
Average Humidity 91    
Maximum Humidity 93    
Minimum Humidity 84    
Precipitation  
Precipitation 0.00 in - - ()
Sea Level Pressure  
Sea Level Pressure 30.01 in    
Wind  
Wind Speed 3 mph (South)    
Max Wind Speed 6 mph    
Max Gust Speed -    
Visibility 8 miles    
Events Snow    
Averages and records for this station are not official NWS values.
T = Trace of Precipitation, MM = Missing Value Source: NWS Daily Summary

Daily Weather History Graph

Daily Weather History Graph

Search for Another Location

Airport:

Trip Planner

Search our weather history database for the weather conditions in past years. The results will help you decide how hot, cold, wet, or windy it might be!

Date:

Astronomy

Dec. 29, 2012 Rise Set
Actual Time 7:30 AM PST 4:00 PM PST
Civil Twilight 6:54 AM PST 4:35 PM PST
Nautical Twilight 6:15 AM PST 5:14 PM PST
Astronomical Twilight 5:37 AM PST 5:52 PM PST
Moon 5:45 PM PST (12/29) 7:59 AM PST (12/29)
Length of Visible Light 9h 41m
Length of Day
8h 29m
Full, 98% of the Moon is Illuminated
Dec 29
Full
Jan 4
Last Quarter
Jan 11
New
Jan 18
First Quarter
Jan 26
Full

Hourly Weather History & Observations

Time (PST) Temp. Windchill Dew Point Humidity Pressure Visibility Wind Dir Wind Speed Gust Speed Precip Events Conditions
12:53 AM 18.0 °F 9.8 °F 15.1 °F 88% 30.15 in 10.0 mi South 5.8 mph - N/A   Clear
1:53 AM 18.0 °F 11.1 °F 15.1 °F 88% 30.17 in 10.0 mi SSW 4.6 mph - N/A   Clear
2:53 AM 17.1 °F 11.7 °F 15.1 °F 92% 30.17 in 10.0 mi SW 3.5 mph - N/A   Clear
4:53 AM 18.0 °F 12.7 °F 14.0 °F 84% 30.15 in 10.0 mi SSW 3.5 mph - N/A   Clear
5:13 AM 17.6 °F 10.7 °F 15.8 °F 93% 29.97 in 9.0 mi South 4.6 mph - N/A   Scattered Clouds
5:22 AM 17.6 °F 10.7 °F 15.8 °F 93% 29.97 in 9.0 mi South 4.6 mph - N/A   Mostly Cloudy
5:53 AM 17.1 °F 11.7 °F 15.1 °F 92% 30.15 in 10.0 mi South 3.5 mph - N/A   Mostly Cloudy
6:02 AM 15.8 °F 8.6 °F 14.0 °F 93% 29.96 in 10.0 mi South 4.6 mph - N/A   Mostly Cloudy
6:12 AM 15.8 °F 8.6 °F 14.0 °F 93% 29.96 in 10.0 mi South 4.6 mph - N/A   Overcast
6:19 AM 15.8 °F 8.6 °F 14.0 °F 93% 29.96 in 10.0 mi South 4.6 mph - N/A   Overcast
6:53 AM 17.1 °F 10.0 °F 15.1 °F 92% 30.14 in 10.0 mi Variable 4.6 mph - N/A   Overcast
7:53 AM 17.1 °F 11.7 °F 15.1 °F 92% 30.14 in 10.0 mi South 3.5 mph - N/A   Overcast
8:53 AM 16.0 °F 8.8 °F 14.0 °F 92% 30.17 in 9.0 mi South 4.6 mph - N/A   Overcast
9:53 AM 17.1 °F 10.0 °F 14.0 °F 88% 30.15 in 10.0 mi SSW 4.6 mph - N/A   Mostly Cloudy
10:53 AM 18.0 °F - 16.0 °F 92% 30.13 in 10.0 mi Calm Calm - N/A   Overcast
11:53 AM 18.0 °F 11.1 °F 15.1 °F 88% 30.12 in 10.0 mi Variable 4.6 mph - N/A   Overcast
12:53 PM 18.0 °F - 16.0 °F 92% 30.10 in 6.0 mi Calm Calm - N/A   Overcast
1:53 PM 18.0 °F - 16.0 °F 92% 30.09 in 10.0 mi Calm Calm - N/A   Overcast
2:44 PM 17.6 °F - 15.8 °F 93% 29.90 in 1.8 mi Calm Calm - N/A   Overcast
2:49 PM 17.6 °F - 15.8 °F 93% 29.90 in 4.0 mi Calm Calm - N/A   Overcast
2:53 PM 18.0 °F - 15.1 °F 88% 30.08 in 8.0 mi Calm Calm - N/A   Overcast
3:06 PM 17.6 °F - 15.8 °F 93% 29.89 in 10.0 mi Calm Calm - N/A   Overcast
3:14 PM 17.6 °F - 15.8 °F 93% 29.89 in 10.0 mi Calm Calm - N/A   Overcast
3:53 PM 17.1 °F - 14.0 °F 88% 30.08 in 10.0 mi Calm Calm - N/A   Overcast
4:26 PM 17.6 °F - 15.8 °F 93% 29.89 in 9.0 mi Calm Calm - N/A   Overcast
4:34 PM 17.6 °F - 15.8 °F 93% 29.89 in 9.0 mi Calm Calm - N/A   Overcast
4:53 PM 16.0 °F - 14.0 °F 92% 30.09 in 10.0 mi Calm Calm - N/A   Overcast
5:03 PM 15.8 °F - 14.0 °F 93% 29.89 in 10.0 mi Calm Calm - N/A   Overcast
5:11 PM 15.8 °F - 14.0 °F 93% 29.89 in 10.0 mi Calm Calm - N/A   Overcast
5:25 PM 15.8 °F - 14.0 °F 93% 29.89 in 10.0 mi Calm Calm - N/A   Overcast
5:34 PM 17.6 °F - 14.0 °F 86% 29.89 in 4.0 mi Calm Calm - N/A   Overcast
5:43 PM 17.6 °F - 15.8 °F 93% 29.89 in 8.0 mi Calm Calm - N/A   Overcast
5:53 PM 17.1 °F - 14.0 °F 88% 30.09 in 8.0 mi Calm Calm - N/A   Overcast
6:07 PM 17.6 °F - 14.0 °F 86% 29.89 in 10.0 mi Calm Calm - N/A   Overcast
6:53 PM 16.0 °F - 14.0 °F 92% 30.09 in 10.0 mi Calm Calm - N/A   Overcast
7:08 PM 15.8 °F - 12.2 °F 86% 29.89 in 10.0 mi Calm Calm - N/A   Overcast
7:53 PM 15.1 °F - 12.9 °F 91% 30.10 in 10.0 mi Calm Calm - N/A   Mostly Cloudy
8:09 PM 15.8 °F - 12.2 °F 86% 29.90 in 10.0 mi Calm Calm - N/A   Scattered Clouds
8:53 PM 15.1 °F - 12.0 °F 88% 30.11 in 10.0 mi Calm Calm - N/A   Mostly Cloudy
9:53 PM 14.0 °F 8.2 °F 12.0 °F 92% 30.12 in 10.0 mi NNW 3.5 mph - N/A   Overcast
9:56 PM 14.0 °F - 12.2 °F 93% 29.91 in 2.0 mi Calm Calm - N/A   Overcast
10:03 PM 14.0 °F 8.2 °F 12.2 °F 93% 29.92 in 1.5 mi North 3.5 mph - N/A   Overcast
10:06 PM 14.0 °F 8.2 °F 12.2 °F 93% 29.92 in 3.0 mi North 3.5 mph - N/A   Overcast
10:34 PM 14.0 °F - 12.2 °F 93% 29.92 in 8.0 mi Calm Calm - N/A   Overcast
10:48 PM 14.0 °F - 12.2 °F 93% 29.92 in 1.8 mi Calm Calm - 0.00 in Snow Light Snow
10:49 PM 14.0 °F - 12.2 °F 93% 29.92 in 1.8 mi Calm Calm - 0.00 in Snow Light Snow
10:53 PM 14.0 °F - 12.0 °F 92% 30.13 in 2.5 mi Calm Calm - 0.00 in Snow Light Snow
10:59 PM 14.0 °F - 12.2 °F 93% 29.92 in 2.5 mi Calm Calm - 0.00 in Snow Light Snow
11:13 PM 14.0 °F - 12.2 °F 93% 29.92 in 6.0 mi Calm Calm - 0.00 in   Overcast
11:32 PM 14.0 °F - 12.2 °F 93% 29.92 in 7.0 mi Calm Calm - 0.00 in   Overcast
11:53 PM 12.9 °F 6.9 °F 10.9 °F 92% 30.14 in 5.0 mi North 3.5 mph - 0.00 in   Overcast